Location: Milton
(43.5183°N, 79.8775°W)
Time: 05:35:48
(UTC+00:00)

LilacSat-2 - Pass Details

Date: 02 April 2023
Orbit: 498 x 516 km, 97.5° (Epoch: 06 June)

Event Time Altitude Azimuth Distance (km) Brightness Sun altitude
Rises 10:30:42 0° 28° (NNE) 2,602 ? -6.0°
Reaches altitude 10° 10:33:13 10° 46° (NE) 1,715 ? -5.6°
Maximum altitude 10:35:58 20° 94° (E) 1,222 ? -5.1°
Drops below altitude 10° 10:38:43 10° 142° (SE) 1,711 ? -4.6°
Sets 10:41:13 0° 160° (SSE) 2,593 ? -4.2°
